| time (UTC) | temp F | wind direction | speed knots | gust knots | rain 1hr in | rain 24hr in | rain mn in | humidity % | barometer mb |
| 20260505165201 | 67 | 300 | 2.6 | 8.7 | 0.00 | 0.01 | 0.01 | 57 | 970.9 |
| 20260505164702 | 68 | 257 | 4.3 | 10.4 | 0.00 | 0.01 | 0.01 | 56 | 970.9 |
| 20260505164205 | 68 | 327 | 5.2 | 13.0 | 0.00 | 0.01 | 0.01 | 57 | 970.9 |
| 20260505163703 | 68 | 221 | 5.2 | 13.0 | 0.00 | 0.01 | 0.01 | 55 | 970.9 |
| 20260505163203 | 68 | 308 | 1.7 | 11.3 | 0.00 | 0.01 | 0.01 | 55 | 970.9 |
| 20260505162702 | 69 | 136 | 4.3 | 7.8 | 0.00 | 0.01 | 0.01 | 55 | 971.2 |
| 20260505162202 | 69 | 283 | 4.3 | 9.6 | 0.00 | 0.01 | 0.01 | 56 | 970.9 |
| 20260505161702 | 69 | 253 | 2.6 | 9.6 | 0.00 | 0.01 | 0.01 | 56 | 970.6 |
| 20260505161202 | 68 | 213 | 3.5 | 10.4 | 0.00 | 0.01 | 0.01 | 57 | 970.6 |
| 20260505160702 | 69 | 207 | 0.9 | 10.4 | 0.00 | 0.01 | 0.01 | 58 | 970.6 |
| 20260505160202 | 68 | 201 | 2.6 | 10.4 | 0.00 | 0.01 | 0.01 | 58 | 970.6 |
| 20260505153200 | 67 | 228 | 3.5 | 8.7 | 0.00 | 0.01 | 0.01 | 61 | 970.6 |
| 20260505152659 | 67 | 340 | 3.5 | 11.3 | 0.00 | 0.01 | 0.01 | 61 | 970.6 |
| 20260505152200 | 67 | 306 | 3.5 | 10.4 | 0.00 | 0.01 | 0.01 | 61 | 970.6 |
| 20260505151700 | 67 | 84 | 1.7 | 13.0 | 0.00 | 0.01 | 0.01 | 61 | 970.6 |
| 20260505151159 | 66 | 220 | 3.5 | 13.0 | 0.00 | 0.01 | 0.01 | 61 | 970.9 |
| 20260505150158 | 65 | 266 | 1.7 | 11.3 | 0.00 | 0.01 | 0.01 | 64 | 970.6 |
| 20260505140155 | 63 | 213 | 7.8 | 13.0 | 0.00 | 0.01 | 0.01 | 65 | 970.6 |
| 20260505130152 | 61 | 221 | 0.9 | 5.2 | 0.01 | 0.01 | 0.01 | 71 | 970.2 |
| 20260505124652 | 61 | 190 | 0.0 | 5.2 | 0.01 | 0.01 | 0.01 | 70 | 970.2 |
| 20260505123651 | 61 | 230 | 0.0 | 4.3 | 0.01 | 0.01 | 0.01 | 71 | 969.9 |
| 20260505123151 | 61 | 339 | 0.0 | 3.5 | 0.01 | 0.01 | 0.01 | 70 | 970.2 |
| 20260505122650 | 61 | 185 | 2.6 | 3.5 | 0.01 | 0.01 | 0.01 | 70 | 969.9 |
| 20260505122150 | 61 | 29 | 0.0 | 3.5 | 0.01 | 0.01 | 0.01 | 70 | 969.9 |
| 20260505121650 | 61 | 278 | 0.0 | 3.5 | 0.01 | 0.01 | 0.01 | 70 | 969.5 |
| 20260505121150 | 61 | 330 | 0.0 | 3.5 | 0.01 | 0.01 | 0.01 | 69 | 969.9 |
| 20260505120149 | 62 | 315 | 0.0 | 3.5 | 0.00 | 0.00 | 0.00 | 68 | 970.2 |
| 20260505115148 | 62 | 228 | 0.0 | 2.6 | 0.00 | 0.00 | 0.00 | 67 | 969.9 |
| 20260505114648 | 62 | 333 | 0.9 | 4.3 | 0.00 | 0.00 | 0.00 | 67 | 969.9 |
| 20260505114148 | 62 | 24 | 0.9 | 4.3 | 0.00 | 0.00 | 0.00 | 67 | 969.5 |
| 20260505113647 | 61 | 273 | 1.7 | 4.3 | 0.00 | 0.00 | 0.00 | 68 | 969.9 |
| 20260505113148 | 62 | 265 | 0.9 | 4.3 | 0.00 | 0.00 | 0.00 | 67 | 969.9 |
| 20260505112647 | 62 | 225 | 1.7 | 5.2 | 0.00 | 0.00 | 0.00 | 67 | 969.9 |
| 20260505112147 | 62 | 219 | 0.9 | 5.2 | 0.00 | 0.00 | 0.00 | 67 | 969.5 |
| 20260505111646 | 61 | 237 | 0.9 | 5.2 | 0.00 | 0.00 | 0.00 | 67 | 969.5 |
| 20260505111146 | 61 | 215 | 2.6 | 6.1 | 0.00 | 0.00 | 0.00 | 68 | 969.9 |
| 20260505110646 | 61 | 231 | 1.7 | 6.1 | 0.00 | 0.00 | 0.00 | 68 | 969.5 |
| 20260505110146 | 61 | 335 | 0.0 | 2.6 | 0.00 | 0.00 | 0.00 | 68 | 969.5 |
| 20260505102144 | 62 | 232 | 1.7 | 4.3 | 0.00 | 0.00 | 0.00 | 67 | 969.5 |
| 20260505101643 | 62 | 333 | 0.0 | 4.3 | 0.00 | 0.00 | 0.00 | 67 | 969.2 |
| 20260505100643 | 61 | 277 | 1.7 | 6.1 | 0.00 | 0.00 | 0.00 | 67 | 969.2 |
| 20260505100143 | 61 | 327 | 2.6 | 6.1 | 0.00 | 0.00 | 0.00 | 68 | 969.2 |
| 20260505095642 | 61 | 250 | 1.7 | 3.5 | 0.00 | 0.00 | 0.00 | 69 | 969.2 |
| 20260505094642 | 61 | 205 | 1.7 | 3.5 | 0.00 | 0.00 | 0.00 | 68 | 968.9 |
| 20260505094142 | 61 | 337 | 1.7 | 5.2 | 0.00 | 0.00 | 0.00 | 68 | 969.2 |
| 20260505093141 | 61 | 283 | 2.6 | 3.5 | 0.00 | 0.00 | 0.00 | 68 | 968.9 |
| 20260505092640 | 61 | 318 | 2.6 | 3.5 | 0.00 | 0.00 | 0.00 | 68 | 968.9 |
| 20260505092140 | 62 | 206 | 0.9 | 3.5 | 0.00 | 0.00 | 0.00 | 67 | 968.9 |
| 20260505091640 | 62 | 247 | 1.7 | 3.5 | 0.00 | 0.00 | 0.00 | 67 | 968.9 |
| 20260505091139 | 62 | 212 | 2.6 | 3.5 | 0.00 | 0.00 | 0.00 | 67 | 968.9 |
| 20260505090640 | 62 | 0 | 0.0 | 4.3 | 0.00 | 0.00 | 0.00 | 67 | 968.9 |
| 20260505090139 | 62 | 257 | 1.7 | 4.3 | 0.00 | 0.00 | 0.00 | 66 | 968.5 |
| 20260505085639 | 62 | 289 | 0.0 | 5.2 | 0.00 | 0.00 | 0.00 | 66 | 968.5 |
| 20260505085138 | 63 | 216 | 2.6 | 5.2 | 0.00 | 0.00 | 0.00 | 66 | 968.9 |
| 20260505084638 | 63 | 344 | 2.6 | 7.0 | 0.00 | 0.00 | 0.00 | 66 | 968.5 |
| 20260505084138 | 63 | 236 | 3.5 | 7.0 | 0.00 | 0.00 | 0.00 | 66 | 968.5 |
| 20260505083641 | 62 | 204 | 1.7 | 9.6 | 0.00 | 0.00 | 0.00 | 68 | 968.5 |
| 20260505083137 | 63 | 258 | 1.7 | 10.4 | 0.00 | 0.00 | 0.00 | 67 | 968.5 |
| 20260505082637 | 63 | 309 | 4.3 | 10.4 | 0.00 | 0.00 | 0.00 | 66 | 968.2 |
| 20260505082137 | 64 | 319 | 5.2 | 6.1 | 0.00 | 0.00 | 0.00 | 63 | 968.5 |
| 20260505081637 | 64 | 319 | 2.6 | 7.0 | 0.00 | 0.00 | 0.00 | 62 | 968.2 |
| 20260505081137 | 64 | 175 | 1.7 | 7.8 | 0.00 | 0.00 | 0.00 | 62 | 968.2 |
| 20260505080130 | 64 | 223 | 7.8 | 8.7 | 0.00 | 0.00 | 0.00 | 61 | 968.2 |
| 20260505075130 | 64 | 208 | 4.3 | 7.0 | 0.00 | 0.00 | 0.00 | 62 | 967.9 |
| 20260505074630 | 64 | 217 | 2.6 | 5.2 | 0.00 | 0.00 | 0.00 | 62 | 967.9 |
| 20260505074129 | 64 | 125 | 0.9 | 6.1 | 0.00 | 0.00 | 0.00 | 62 | 967.9 |
| 20260505073629 | 64 | 214 | 3.5 | 11.3 | 0.00 | 0.00 | 0.00 | 62 | 967.9 |
| 20260505073130 | 64 | 233 | 1.7 | 11.3 | 0.00 | 0.00 | 0.00 | 62 | 967.9 |
| 20260505072630 | 64 | 129 | 1.7 | 7.0 | 0.00 | 0.00 | 0.00 | 62 | 967.9 |
| 20260505072130 | 64 | 264 | 1.7 | 9.6 | 0.00 | 0.00 | 0.00 | 62 | 967.9 |
| 20260505071130 | 64 | 240 | 1.7 | 4.3 | 0.00 | 0.00 | 0.00 | 63 | 967.9 |
| 20260505070629 | 64 | 334 | 1.7 | 6.1 | 0.00 | 0.00 | 0.00 | 63 | 967.9 |
| 20260505070130 | 64 | 326 | 1.7 | 6.1 | 0.00 | 0.00 | 0.00 | 63 | 967.9 |
| 20260505065630 | 64 | 220 | 1.7 | 7.0 | 0.00 | 0.00 | 0.00 | 63 | 967.9 |
| 20260505065130 | 64 | 72 | 0.9 | 7.0 | 0.00 | 0.00 | 0.00 | 63 | 967.9 |
| 20260505064130 | 64 | 204 | 0.9 | 4.3 | 0.00 | 0.00 | 0.00 | 63 | 967.5 |
| 20260505063630 | 64 | 299 | 2.6 | 6.1 | 0.00 | 0.00 | 0.00 | 63 | 968.2 |
| 20260505063130 | 64 | 216 | 0.9 | 6.1 | 0.00 | 0.00 | 0.00 | 63 | 967.9 |
| 20260505062634 | 64 | 212 | 0.9 | 6.1 | 0.00 | 0.00 | 0.00 | 63 | 967.9 |
| 20260505062130 | 64 | 98 | 1.7 | 4.3 | 0.00 | 0.00 | 0.00 | 63 | 968.2 |
| 20260505061630 | 64 | 328 | 0.0 | 7.8 | 0.00 | 0.00 | 0.00 | 63 | 968.2 |
| 20260505061129 | 64 | 221 | 5.2 | 7.8 | 0.00 | 0.00 | 0.00 | 63 | 968.2 |
| 20260505060629 | 64 | 320 | 0.0 | 7.8 | 0.00 | 0.00 | 0.00 | 62 | 968.2 |
| 20260505060129 | 64 | 112 | 0.9 | 7.8 | 0.00 | 0.00 | 0.00 | 62 | 968.2 |
| 20260505055129 | 65 | 154 | 3.5 | 6.1 | 0.00 | 0.00 | 0.00 | 61 | 968.2 |
| 20260505054628 | 65 | 267 | 0.0 | 6.1 | 0.00 | 0.00 | 0.00 | 61 | 968.5 |
| 20260505054128 | 65 | 275 | 2.6 | 6.1 | 0.00 | 0.00 | 0.00 | 61 | 968.5 |
| 20260505053628 | 65 | 275 | 0.9 | 5.2 | 0.00 | 0.00 | 0.00 | 62 | 968.5 |
| 20260505053128 | 65 | 207 | 2.6 | 6.1 | 0.00 | 0.00 | 0.00 | 62 | 968.5 |
| 20260505052628 | 65 | 193 | 1.7 | 7.8 | 0.00 | 0.00 | 0.00 | 62 | 968.9 |
| 20260505052127 | 65 | 199 | 1.7 | 7.8 | 0.00 | 0.00 | 0.00 | 62 | 968.5 |
| 20260505051627 | 65 | 264 | 0.0 | 5.2 | 0.00 | 0.00 | 0.00 | 61 | 968.9 |
| 20260505051128 | 65 | 309 | 0.9 | 10.4 | 0.00 | 0.00 | 0.00 | 61 | 968.9 |
| 20260505050126 | 65 | 38 | 0.9 | 6.1 | 0.00 | 0.00 | 0.00 | 61 | 968.9 |
| 20260505040624 | 65 | 348 | 0.0 | 7.0 | 0.00 | 0.00 | 0.00 | 62 | 968.9 |
| 20260505040123 | 65 | 125 | 1.7 | 9.6 | 0.00 | 0.00 | 0.00 | 62 | 968.9 |
| 20260505034122 | 64 | 307 | 0.0 | 6.1 | 0.00 | 0.00 | 0.00 | 62 | 968.9 |
| 20260505033122 | 63 | 41 | 3.5 | 6.1 | 0.00 | 0.00 | 0.00 | 62 | 968.9 |
| 20260505032621 | 63 | 98 | 1.7 | 6.1 | 0.00 | 0.00 | 0.00 | 62 | 968.9 |
| 20260505032121 | 64 | 318 | 1.7 | 5.2 | 0.00 | 0.00 | 0.00 | 62 | 968.9 |
| 20260505031621 | 63 | 253 | 1.7 | 5.2 | 0.00 | 0.00 | 0.00 | 62 | 968.9 |
| 20260505031120 | 63 | 230 | 0.9 | 3.5 | 0.00 | 0.00 | 0.00 | 62 | 968.9 |
| 20260505030620 | 63 | 51 | 1.7 | 4.3 | 0.00 | 0.00 | 0.00 | 62 | 969.2 |
| 20260505030120 | 64 | 248 | 0.0 | 4.3 | 0.00 | 0.00 | 0.00 | 61 | 968.9 |
| 20260505025620 | 64 | 257 | 0.0 | 5.2 | 0.00 | 0.00 | 0.00 | 61 | 969.2 |
| 20260505025120 | 64 | 212 | 0.9 | 5.2 | 0.00 | 0.00 | 0.00 | 61 | 969.2 |
| 20260505024620 | 64 | 48 | 0.0 | 3.5 | 0.00 | 0.00 | 0.00 | 61 | 968.9 |
| 20260505024119 | 64 | 186 | 1.7 | 5.2 | 0.00 | 0.00 | 0.00 | 61 | 968.9 |
| 20260505023618 | 64 | 249 | 1.7 | 5.2 | 0.00 | 0.00 | 0.00 | 61 | 968.9 |
| 20260505023118 | 64 | 75 | 0.0 | 6.1 | 0.00 | 0.00 | 0.00 | 61 | 969.2 |
| 20260505022618 | 64 | 248 | 1.7 | 6.1 | 0.00 | 0.00 | 0.00 | 60 | 969.2 |
| 20260505022122 | 64 | 48 | 0.9 | 4.3 | 0.00 | 0.00 | 0.00 | 60 | 969.2 |
| 20260505021618 | 64 | 251 | 1.7 | 3.5 | 0.00 | 0.00 | 0.00 | 59 | 969.2 |
| 20260505021118 | 65 | 131 | 2.6 | 3.5 | 0.00 | 0.00 | 0.00 | 59 | 969.2 |
| 20260505020617 | 65 | 207 | 2.6 | 7.8 | 0.00 | 0.00 | 0.00 | 59 | 969.2 |
| 20260505020117 | 65 | 201 | 1.7 | 7.8 | 0.00 | 0.00 | 0.00 | 58 | 969.2 |
| 20260505015616 | 65 | 317 | 1.7 | 6.1 | 0.00 | 0.00 | 0.00 | 58 | 969.2 |
| 20260505015117 | 65 | 293 | 0.9 | 6.1 | 0.00 | 0.00 | 0.00 | 58 | 969.2 |
| 20260505014616 | 65 | 218 | 0.0 | 5.2 | 0.00 | 0.00 | 0.00 | 58 | 969.2 |
| 20260505014116 | 65 | 306 | 0.9 | 6.1 | 0.00 | 0.00 | 0.00 | 57 | 969.2 |
| 20260505013616 | 66 | 244 | 0.0 | 6.1 | 0.00 | 0.00 | 0.00 | 57 | 969.2 |
| 20260505012615 | 66 | 17 | 0.0 | 9.6 | 0.00 | 0.00 | 0.00 | 56 | 968.9 |
| 20260505012115 | 66 | 234 | 2.6 | 6.1 | 0.00 | 0.00 | 0.00 | 55 | 969.2 |
| 20260505011615 | 66 | 194 | 1.7 | 7.0 | 0.00 | 0.00 | 0.00 | 55 | 969.2 |
| 20260505011114 | 67 | 223 | 3.5 | 10.4 | 0.00 | 0.00 | 0.00 | 55 | 968.9 |
| 20260505010614 | 67 | 217 | 2.6 | 10.4 | 0.00 | 0.00 | 0.00 | 54 | 968.9 |
| 20260505010113 | 67 | 349 | 3.5 | 8.7 | 0.00 | 0.00 | 0.00 | 54 | 968.9 |
| 20260505005113 | 67 | 17 | 0.0 | 10.4 | 0.00 | 0.00 | 0.00 | 54 | 968.9 |
| 20260505004613 | 67 | 193 | 1.7 | 8.7 | 0.00 | 0.00 | 0.00 | 53 | 968.9 |
| 20260505004113 | 67 | 227 | 2.6 | 8.7 | 0.00 | 0.00 | 0.00 | 53 | 968.9 |
| 20260505003613 | 68 | 309 | 4.3 | 10.4 | 0.00 | 0.00 | 0.00 | 53 | 968.5 |
| 20260505002615 | 68 | 172 | 1.7 | 7.8 | 0.00 | 0.00 | 0.00 | 52 | 968.5 |
| 20260505002111 | 68 | 238 | 1.7 | 7.0 | 0.00 | 0.00 | 0.00 | 52 | 968.5 |
| 20260505001612 | 68 | 221 | 3.5 | 7.0 | 0.00 | 0.00 | 0.00 | 52 | 968.5 |
| 20260505000110 | 69 | 174 | 0.9 | 8.7 | 0.00 | 0.00 | 0.00 | 51 | 968.2 |
| 20260504235611 | 69 | 220 | 1.7 | 8.7 | 0.00 | 0.00 | 0.00 | 50 | 968.2 |
| 20260504235110 | 70 | 222 | 1.7 | 7.8 | 0.00 | 0.00 | 0.00 | 49 | 967.9 |
| 20260504234109 | 70 | 172 | 0.0 | 7.8 | 0.00 | 0.00 | 0.00 | 49 | 967.9 |
| 20260504233609 | 70 | 350 | 1.7 | 7.8 | 0.00 | 0.00 | 0.00 | 49 | 967.9 |
| 20260504233109 | 71 | 208 | 2.6 | 7.0 | 0.00 | 0.00 | 0.00 | 48 | 967.9 |
| 20260504232608 | 71 | 248 | 1.7 | 9.6 | 0.00 | 0.00 | 0.00 | 48 | 967.9 |
| 20260504231108 | 71 | 316 | 2.6 | 10.4 | 0.00 | 0.00 | 0.00 | 47 | 967.9 |
| 20260504230608 | 71 | 224 | 2.6 | 10.4 | 0.00 | 0.00 | 0.00 | 46 | 968.2 |
| 20260504225607 | 72 | 248 | 2.6 | 11.3 | 0.00 | 0.00 | 0.00 | 47 | 968.2 |
| 20260504224607 | 71 | 213 | 11.3 | 12.2 | 0.00 | 0.00 | 0.00 | 48 | 968.5 |
| 20260504223605 | 71 | 211 | 4.3 | 14.8 | 0.00 | 0.00 | 0.00 | 48 | 968.2 |
| 20260504223104 | 71 | 216 | 4.3 | 9.6 | 0.00 | 0.00 | 0.00 | 48 | 968.5 |
| 20260504222105 | 71 | 314 | 3.5 | 11.3 | 0.00 | 0.00 | 0.00 | 48 | 968.5 |
| 20260504221604 | 71 | 280 | 2.6 | 11.3 | 0.00 | 0.00 | 0.00 | 48 | 968.5 |
| 20260504221104 | 72 | 142 | 3.5 | 7.8 | 0.00 | 0.00 | 0.00 | 48 | 968.5 |
| 20260504220604 | 72 | 288 | 3.5 | 9.6 | 0.00 | 0.00 | 0.00 | 47 | 968.5 |
| 20260504215603 | 71 | 194 | 1.7 | 9.6 | 0.00 | 0.00 | 0.00 | 48 | 968.5 |
| 20260504215102 | 71 | 233 | 5.2 | 11.3 | 0.00 | 0.00 | 0.00 | 48 | 968.5 |
| 20260504214602 | 72 | 112 | 1.7 | 11.3 | 0.00 | 0.00 | 0.00 | 46 | 968.5 |
| 20260504214102 | 72 | 190 | 1.7 | 8.7 | 0.00 | 0.00 | 0.00 | 47 | 968.5 |
| 20260504213602 | 72 | 246 | 2.6 | 7.8 | 0.00 | 0.00 | 0.00 | 47 | 968.5 |
| 20260504212603 | 70 | 205 | 2.6 | 10.4 | 0.00 | 0.00 | 0.00 | 48 | 968.5 |
| 20260504211102 | 71 | 225 | 1.7 | 10.4 | 0.00 | 0.00 | 0.00 | 48 | 968.9 |
| 20260504210602 | 71 | 348 | 4.3 | 11.3 | 0.00 | 0.00 | 0.00 | 48 | 968.5 |
| 20260504210101 | 71 | 230 | 6.1 | 12.2 | 0.00 | 0.00 | 0.00 | 48 | 968.9 |
| 20260504205601 | 70 | 285 | 0.9 | 12.2 | 0.00 | 0.00 | 0.00 | 49 | 968.9 |
| 20260504205100 | 70 | 227 | 0.9 | 9.6 | 0.00 | 0.00 | 0.00 | 48 | 968.9 |
| 20260504204100 | 71 | 332 | 0.9 | 16.5 | 0.00 | 0.00 | 0.00 | 48 | 968.9 |
| 20260504203603 | 71 | 243 | 3.5 | 16.5 | 0.00 | 0.00 | 0.00 | 46 | 968.9 |
| 20260504203100 | 71 | 263 | 1.7 | 11.3 | 0.00 | 0.00 | 0.00 | 47 | 968.9 |
| 20260504202559 | 73 | 207 | 3.5 | 11.3 | 0.00 | 0.00 | 0.00 | 45 | 968.9 |
| 20260504202059 | 72 | 247 | 4.3 | 10.4 | 0.00 | 0.00 | 0.00 | 45 | 968.9 |
| 20260504201559 | 73 | 290 | 1.7 | 10.4 | 0.00 | 0.00 | 0.00 | 46 | 968.9 |
| 20260504200558 | 71 | 59 | 1.7 | 9.6 | 0.00 | 0.00 | 0.00 | 45 | 969.2 |
| 20260504200058 | 72 | 212 | 4.3 | 10.4 | 0.00 | 0.00 | 0.00 | 45 | 969.2 |
| 20260504195558 | 72 | 239 | 3.5 | 10.4 | 0.00 | 0.00 | 0.00 | 45 | 969.2 |
| 20260504195057 | 71 | 183 | 0.0 | 8.7 | 0.00 | 0.00 | 0.00 | 45 | 969.2 |
| 20260504194557 | 72 | 350 | 3.5 | 7.8 | 0.00 | 0.00 | 0.00 | 45 | 968.9 |
| 20260504194057 | 72 | 220 | 1.7 | 7.8 | 0.00 | 0.00 | 0.00 | 47 | 969.2 |
| 20260504192556 | 71 | 218 | 5.2 | 9.6 | 0.00 | 0.00 | 0.00 | 46 | 969.5 |
| 20260504192055 | 72 | 297 | 3.5 | 9.6 | 0.00 | 0.00 | 0.00 | 46 | 969.5 |
| 20260504191556 | 71 | 6 | 2.6 | 7.8 | 0.00 | 0.00 | 0.00 | 46 | 969.9 |
| 20260504191055 | 70 | 273 | 4.3 | 9.6 | 0.00 | 0.00 | 0.00 | 48 | 969.9 |
| 20260504190555 | 70 | 310 | 2.6 | 9.6 | 0.00 | 0.00 | 0.00 | 47 | 969.5 |
| 20260504190054 | 70 | 338 | 0.9 | 7.8 | 0.00 | 0.00 | 0.00 | 47 | 969.9 |
| 20260504185554 | 70 | 69 | 2.6 | 13.0 | 0.00 | 0.00 | 0.00 | 47 | 969.9 |
| 20260504185054 | 69 | 187 | 3.5 | 13.0 | 0.00 | 0.00 | 0.00 | 48 | 969.9 |
| 20260504184554 | 69 | 204 | 5.2 | 13.0 | 0.00 | 0.00 | 0.00 | 47 | 970.2 |
| 20260504184057 | 70 | 198 | 1.7 | 11.3 | 0.00 | 0.00 | 0.00 | 47 | 970.2 |
| 20260504183053 | 70 | 242 | 3.5 | 13.0 | 0.00 | 0.00 | 0.00 | 47 | 970.2 |
| 20260504182053 | 69 | 198 | 1.7 | 9.6 | 0.00 | 0.00 | 0.00 | 48 | 970.2 |
| 20260504181552 | 69 | 169 | 4.3 | 9.6 | 0.00 | 0.00 | 0.00 | 46 | 969.9 |
| 20260504181052 | 69 | 233 | 4.3 | 9.6 | 0.00 | 0.00 | 0.00 | 47 | 970.2 |
| 20260504180551 | 69 | 308 | 3.5 | 7.0 | 0.00 | 0.00 | 0.00 | 48 | 970.2 |
| 20260504180051 | 69 | 244 | 2.6 | 8.7 | 0.00 | 0.00 | 0.00 | 47 | 970.2 |
| 20260504175551 | 68 | 136 | 3.5 | 8.7 | 0.00 | 0.00 | 0.00 | 47 | 970.6 |
| 20260504175051 | 68 | 213 | 6.1 | 12.2 | 0.00 | 0.00 | 0.00 | 48 | 970.6 |
| 20260504174551 | 69 | 249 | 5.2 | 12.2 | 0.00 | 0.00 | 0.00 | 46 | 970.6 |
| 20260504174051 | 69 | 247 | 3.5 | 11.3 | 0.00 | 0.00 | 0.00 | 45 | 970.6 |
| 20260504173050 | 67 | 166 | 1.7 | 9.6 | 0.00 | 0.00 | 0.00 | 47 | 970.6 |
| 20260504172550 | 67 | 199 | 7.0 | 12.2 | 0.00 | 0.00 | 0.00 | 46 | 970.9 |
| 20260504172049 | 68 | 341 | 6.1 | 12.2 | 0.00 | 0.00 | 0.00 | 45 | 970.6 |
| 20260504171549 | 67 | 16 | 1.7 | 10.4 | 0.00 | 0.00 | 0.00 | 48 | 970.6 |
| 20260504171049 | 67 | 152 | 1.7 | 8.7 | 0.00 | 0.00 | 0.00 | 46 | 970.6 |
| 20260504170548 | 66 | 198 | 1.7 | 10.4 | 0.00 | 0.00 | 0.00 | 47 | 970.9 |